Weather History for Covington, KY

Change the Weather History Date:

Tuesday, August 6, 2013

  Actual Average Record
Temperature  
Mean Temperature 75 °F 76 °F  
Max Temperature 81 °F 85 °F 101 °F (1947)
Min Temperature 68 °F 66 °F 49 °F (1957)
Degree Days  
Heating Degree Days 0 0  
Month to date heating degree days 0 0  
Since 1 June heating degree days 3 15  
Since 1 July heating degree days 2 0  
Cooling Degree Days 10 11  
Month to date cooling degree days 39 66  
Year to date cooling degree days 721 725  
Since 1 June cooling degree days 582 631  
Growing Degree Days 24 (Base 50)    
Moisture  
Dew Point 63 °F    
Average Humidity 78    
Maximum Humidity 93    
Minimum Humidity 62    
Precipitation  
Precipitation 0.00 in 0.11 in 2.45 in (1982)
Month to date precipitation 0.24 0.70  
Year to date precipitation 29.60 27.08  
Snow  
Snow 0.00 in 0.00 in 0.00 in ()
Month to date snowfall 0.0 0.0  
Since 1 June snowfall 0.0 0.0  
Since 1 July snowfall 0.0 0.0  
Snow Depth 0.00 in    
Sea Level Pressure  
Sea Level Pressure 29.95 in    
Wind  
Wind Speed 7 mph (South)    
Max Wind Speed 14 mph    
Max Gust Speed 16 mph    
Visibility 10 miles    
Events      
T = Trace of Precipitation, MM = Missing Value Source: NWS Daily Summary

Daily Weather History Graph

Daily Weather History Graph

Search for Another Location

Airport:

Trip Planner

Search our weather history database for the weather conditions in past years. The results will help you decide how hot, cold, wet, or windy it might be!

Date:

Astronomy

Aug. 06, 2013 Rise Set
Actual Time 6:44 AM EDT 8:44 PM EDT
Civil Twilight 6:14 AM EDT 9:13 PM EDT
Nautical Twilight 5:38 AM EDT 9:49 PM EDT
Astronomical Twilight 5:00 AM EDT 10:27 PM EDT
Moon 6:34 AM EDT (8/6) 8:19 PM EDT (8/6)
Length of Visible Light 14h 58m
Length of Day
14h 00m
Waning Crescent, 0% of the Moon is Illuminated
Aug 6
Waning Crescent
Aug 6
New
Aug 14
First Quarter
Aug 20
Full
Aug 28
Last Quarter

Hourly Weather History & Observations

Time (EDT) Temp. Heat Index Dew Point Humidity Pressure Visibility Wind Dir Wind Speed Gust Speed Precip Events Conditions
12:52 AM 69.1 °F - 57.0 °F 65% 29.97 in 10.0 mi SSE 8.1 mph - N/A   Overcast
1:52 AM 68.0 °F - 57.9 °F 70% 29.96 in 10.0 mi SSE 6.9 mph - N/A   Mostly Cloudy
2:52 AM 69.1 °F - 57.9 °F 68% 29.95 in 10.0 mi SSE 8.1 mph - N/A   Overcast
3:52 AM 69.1 °F - 57.9 °F 68% 29.95 in 10.0 mi SSE 9.2 mph - N/A   Mostly Cloudy
4:52 AM 69.1 °F - 57.0 °F 65% 29.93 in 10.0 mi SSE 9.2 mph - N/A   Mostly Cloudy
5:52 AM 69.1 °F - 57.0 °F 65% 29.94 in 10.0 mi SSE 8.1 mph - N/A   Overcast
6:52 AM 69.1 °F - 57.0 °F 65% 29.95 in 10.0 mi South 9.2 mph - N/A   Overcast
7:52 AM 69.1 °F - 57.0 °F 65% 29.97 in 10.0 mi SSE 9.2 mph - N/A   Overcast
8:52 AM 70.0 °F - 57.9 °F 65% 29.97 in 10.0 mi SSE 10.4 mph - N/A   Overcast
9:52 AM 72.0 °F - 61.0 °F 68% 29.97 in 10.0 mi SSE 9.2 mph - N/A   Mostly Cloudy
10:52 AM 73.0 °F - 62.1 °F 68% 29.96 in 10.0 mi SSE 8.1 mph - N/A   Mostly Cloudy
11:06 AM 73.4 °F - 62.6 °F 69% 29.98 in 10.0 mi SE 9.2 mph - N/A   Mostly Cloudy
11:36 AM 75.2 °F - 64.4 °F 69% 29.99 in 10.0 mi South 9.2 mph - N/A   Mostly Cloudy
11:52 AM 77.0 °F - 64.0 °F 64% 29.96 in 10.0 mi South 8.1 mph - N/A   Mostly Cloudy
12:52 PM 78.1 °F - 64.9 °F 64% 29.95 in 10.0 mi South 10.4 mph - N/A   Overcast
1:52 PM 79.0 °F - 64.9 °F 62% 29.94 in 10.0 mi South 8.1 mph - N/A   Overcast
2:52 PM 78.1 °F - 66.0 °F 66% 29.95 in 10.0 mi SSE 5.8 mph - N/A   Overcast
3:52 PM 79.0 °F - 66.9 °F 66% 29.94 in 10.0 mi Calm Calm - N/A   Overcast
4:52 PM 80.1 °F 82.7 °F 68.0 °F 67% 29.93 in 10.0 mi SSW 8.1 mph - N/A   Overcast
5:52 PM 79.0 °F - 68.0 °F 69% 29.93 in 10.0 mi SSW 4.6 mph - N/A   Overcast
6:52 PM 80.1 °F 82.9 °F 69.1 °F 69% 29.92 in 10.0 mi SSW 6.9 mph - N/A   Mostly Cloudy
7:52 PM 78.1 °F - 69.1 °F 74% 29.92 in 10.0 mi SSW 4.6 mph - N/A   Mostly Cloudy
8:52 PM 75.0 °F - 70.0 °F 84% 29.92 in 10.0 mi South 3.5 mph - N/A   Mostly Cloudy
9:52 PM 73.0 °F - 69.1 °F 87% 29.92 in 10.0 mi South 4.6 mph - N/A   Scattered Clouds
10:52 PM 73.0 °F - 70.0 °F 90% 29.93 in 10.0 mi South 3.5 mph - N/A   Partly Cloudy
11:52 PM 72.0 °F - 70.0 °F 93% 29.93 in 10.0 mi South 4.6 mph - N/A   Partly Cloudy